Location: Mareeba Aerodrome
(17.0701°S, 145.4240°E)
Time: 08:24:16
(UTC+10:00)

Tiangong - Visible Passes

Search period start: 01 October 2022 00:00
Search period end: 11 October 2022 00:00
Orbit: 381 x 385 km, 41.5° (Epoch: 30 September)

Date Brightness Start Highest point End Pass type
(mag) Time Alt. Az. Time Alt. Az. Time Alt. Az.
06 Oct 0.8 05:12:03 10° NNE 05:13:29 12° NE 05:14:54 10° ENE visible
08 Oct -0.5 04:48:01 17° N 04:49:47 30° NE 04:52:37 10° ESE visible
09 Oct -1.3 05:23:29 11° WNW 05:26:16 35° SW 05:29:14 10° SSE visible
10 Oct -1.6 04:26:35 58° ESE 04:26:35 58° ESE 04:29:14 10° SE visible
